Weather in Galakhovo

Russia / Saratov Oblast     51°51′14″N   44°25′58″E
temp.,
°C
wind,
m/s
gust,
m/s
humid.,
%
clouds,
%
prec.,
mm/h
press.,
hPa
HPBL,
m
12 may, wed
wed1201:00+8nne337661 0.0 102530
04:00+6nne4783100 0.0 1024113
07:00+9nne3693100 1.0 1022177
10:00+9nnw2398100 5.7 1021125
13:00+12se3996100 2.4 1019476
16:00+11wsw2298100 3.4 102093
19:00+14sse368873 0.0 1020504
22:00+10wsw12955 0.0 102115
13 may, thu
thu1301:00+10ne33965 0.0 102128
04:00+10ne469626 0.0 1019108
07:00+12ene4995100 0.4 1018234
10:00+17ese697815 0.6 1017693
13:00+21sse786284 0.1 10161439
16:00+23sse685816 0.2 10161705
19:00+21s367071 0.6 1017179
22:00+18sse117639 0.6 101811
14 may, fri
fri1401:00+15se118455 0.0 101811
04:00+14ese3386100 0.0 101928
07:00+16e3786100 0.0 1019144
10:00+20se5768100 0.0 1018447
13:00+24sse79501 0.0 10181156
16:00+26sse69495 0.0 10181458
19:00+23se5116230 0.0 1017366
22:00+19se41069100 0.0 1017152
15 may, sat
sat1501:00+17sse5156387 0.0 1017275
04:00+15sse415606 0.0 1017262
07:00+16sse4165911 0.0 1018323
10:00+22sse6154882 0.0 1017595
13:00+26sse8124076 0.0 10171025
16:00+27sse712435 0.0 10161841
19:00+24se411561 0.0 1016277
22:00+19se4145871 0.0 1016232
16 may, sun
sun1601:00+17se41461100 0.0 1016221
04:00+16sse4106138 0.0 1016160
07:00+17sse39685 0.0 1016184
10:00+23sse58505 0.0 1017495
13:00+27sse58365 0.0 10161566
16:00+27sse68410 0.0 10161684
19:00+25se345769 0.0 101574
22:00+20ese33615 0.0 101633